• In Hungary
  • List of Countries
  • For 7 days
  • Water Temperature
  • Satellite Maps
  • Weather Map
  • News
  • Weather Widgets
  • user-avatar
    Login

    Hourly Weather Trutnowy

    Today, 23 July, Monday

    Time Temperature Precipitation Wind Pressure Humidity
    00:00 +18°C° 0 mm 1 mps 759 mmHg 82%
    01:00 +18°C° 0 mm 1 mps 759 mmHg 81%
    02:00 +18°C° 0 mm 1 mps 759 mmHg 80%
    03:00 +18°C° 0 mm 1 mps 759 mmHg 79%
    04:00 +18°C° 0 mm 1 mps 759 mmHg 77%
    05:00 +19°C° 0 mm 2 mps 759 mmHg 73%
    06:00 +20°C° 0 mm 2 mps 760 mmHg 68%
    07:00 +23°C° 0 mm 2 mps 760 mmHg 62%
    08:00 +25°C° 0 mm 2 mps 760 mmHg 58%
    09:00 +26°C° 0 mm 2 mps 760 mmHg 53%
    10:00 +27°C° 0 mm 2 mps 760 mmHg 48%
    11:00 +28°C° 0 mm 2 mps 760 mmHg 47%
    12:00 +28°C° 0 mm 3 mps 760 mmHg 47%
    13:00 +29°C° 0 mm 3 mps 760 mmHg 46%
    14:00 +28°C° 0 mm 3 mps 760 mmHg 48%
    15:00 +28°C° 0 mm 3 mps 760 mmHg 51%
    16:00 +27°C° 0 mm 3 mps 760 mmHg 53%
    17:00 +26°C° 0 mm 3 mps 760 mmHg 60%
    18:00 +25°C° 0 mm 2 mps 760 mmHg 66%
    19:00 +23°C° 0 mm 2 mps 760 mmHg 73%
    20:00 +21°C° 0 mm 2 mps 760 mmHg 76%
    21:00 +20°C° 0 mm 2 mps 760 mmHg 80%
    22:00 +20°C° 0 mm 1 mps 761 mmHg 83%
    23:00 +18°C° 0 mm 2 mps 761 mmHg 85%

    Tomorrow, 24 July, Tuesday

    Time Temperature Precipitation Wind Pressure Humidity
    00:00 +18°C° 0 mm 2 mps 761 mmHg 87%
    01:00 +18°C° 0 mm 2 mps 761 mmHg 89%
    02:00 +17°C° 0 mm 2 mps 760 mmHg 90%
    03:00 +17°C° 0 mm 2 mps 760 mmHg 92%
    04:00 +17°C° 0 mm 2 mps 760 mmHg 93%
    05:00 +19°C° 0 mm 2 mps 760 mmHg 88%
    06:00 +20°C° 0 mm 2 mps 760 mmHg 83%
    07:00 +23°C° 0 mm 2 mps 760 mmHg 78%
    08:00 +24°C° 0 mm 2 mps 761 mmHg 72%
    09:00 +25°C° 0 mm 2 mps 761 mmHg 66%
    10:00 +27°C° 0 mm 2 mps 761 mmHg 60%
    11:00 +27°C° 0 mm 3 mps 760 mmHg 60%
    12:00 +27°C° 0 mm 3 mps 760 mmHg 59%
    13:00 +28°C° 0 mm 3 mps 760 mmHg 59%
    14:00 +27°C° 0 mm 3 mps 760 mmHg 60%
    15:00 +27°C° 0 mm 4 mps 760 mmHg 61%
    16:00 +27°C° 0 mm 4 mps 760 mmHg 62%
    17:00 +26°C° 0 mm 4 mps 760 mmHg 69%
    18:00 +25°C° 0 mm 3 mps 760 mmHg 75%
    19:00 +22°C° 0 mm 3 mps 760 mmHg 81%
    20:00 +21°C° 0 mm 3 mps 760 mmHg 85%
    21:00 +20°C° 0 mm 2 mps 760 mmHg 90%
    22:00 +19°C° 0 mm 2 mps 760 mmHg 94%
    23:00 +19°C° 0 mm 2 mps 760 mmHg 94%

    Day after tomorrow, 25 July, Wednesday

    Time Temperature Precipitation Wind Pressure Humidity
    00:00 +18°C° 0 mm 2 mps 760 mmHg 95%
    01:00 +18°C° 0 mm 2 mps 760 mmHg 95%
    02:00 +18°C° 0 mm 2 mps 760 mmHg 95%
    03:00 +18°C° 0 mm 2 mps 760 mmHg 95%
    04:00 +18°C° 0 mm 2 mps 760 mmHg 95%
    05:00 +19°C° 0 mm 2 mps 760 mmHg 90%
    06:00 +21°C° 0 mm 2 mps 760 mmHg 84%
    07:00 +23°C° 0 mm 2 mps 760 mmHg 79%
    08:00 +25°C° 0 mm 3 mps 760 mmHg 72%
    09:00 +26°C° 0 mm 3 mps 760 mmHg 66%
    10:00 +27°C° 0 mm 3 mps 761 mmHg 60%
    11:00 +27°C° 0 mm 4 mps 760 mmHg 58%
    12:00 +28°C° 0 mm 4 mps 760 mmHg 57%
    13:00 +28°C° 0 mm 4 mps 760 mmHg 55%
    14:00 +28°C° 0 mm 4 mps 760 mmHg 57%
    15:00 +27°C° 0 mm 5 mps 760 mmHg 59%
    16:00 +27°C° 0 mm 5 mps 760 mmHg 61%
    17:00 +26°C° 0 mm 5 mps 760 mmHg 67%
    18:00 +23°C° 0 mm 4 mps 760 mmHg 74%
    19:00 +22°C° 0 mm 4 mps 761 mmHg 80%
    20:00 +21°C° 0 mm 4 mps 761 mmHg 84%
    21:00 +21°C° 0 mm 3 mps 761 mmHg 88%
    22:00 +20°C° 0 mm 3 mps 761 mmHg 93%
    23:00 +20°C° 0 mm 3 mps 761 mmHg 93%

    26 July, Thursday

    Time Temperature Precipitation Wind Pressure Humidity
    00:00 +20°C° 0 mm 3 mps 761 mmHg 94%
    01:00 +19°C° 0 mm 3 mps 761 mmHg 94%
    02:00 +19°C° 0 mm 3 mps 761 mmHg 95%
    03:00 +19°C° 0 mm 3 mps 762 mmHg 95%
    04:00 +19°C° 0 mm 3 mps 762 mmHg 95%
    05:00 +21°C° 0 mm 3 mps 762 mmHg 90%
    06:00 +22°C° 0 mm 3 mps 762 mmHg 85%
    07:00 +23°C° 0 mm 4 mps 762 mmHg 79%
    08:00 +26°C° 0 mm 4 mps 762 mmHg 73%
    09:00 +27°C° 0 mm 4 mps 762 mmHg 66%
    10:00 +28°C° 0 mm 4 mps 762 mmHg 60%
    11:00 +28°C° 0 mm 5 mps 762 mmHg 59%
    12:00 +28°C° 0 mm 5 mps 762 mmHg 58%
    13:00 +29°C° 0 mm 5 mps 762 mmHg 58%
    14:00 +28°C° 0 mm 5 mps 762 mmHg 59%
    15:00 +28°C° 0 mm 6 mps 762 mmHg 61%
    16:00 +28°C° 0 mm 6 mps 762 mmHg 62%
    17:00 +27°C° 0 mm 5 mps 762 mmHg 68%
    18:00 +25°C° 0 mm 5 mps 762 mmHg 73%
    19:00 +23°C° 0 mm 5 mps 762 mmHg 78%
    20:00 +22°C° 0 mm 5 mps 762 mmHg 81%
    21:00 +21°C° 0 mm 4 mps 762 mmHg 85%
    22:00 +21°C° 0 mm 4 mps 762 mmHg 89%
    23:00 +20°C° 0 mm 4 mps 762 mmHg 90%

    27 July, Friday

    Time Temperature Precipitation Wind Pressure Humidity
    00:00 +20°C° 0 mm 4 mps 762 mmHg 91%
    01:00 +20°C° 0 mm 3 mps 762 mmHg 93%
    02:00 +20°C° 0 mm 3 mps 762 mmHg 94%
    03:00 +20°C° 0 mm 3 mps 762 mmHg 94%
    04:00 +20°C° 0 mm 3 mps 762 mmHg 95%
    05:00 +21°C° 0 mm 3 mps 762 mmHg 90%
    06:00 +23°C° 0 mm 4 mps 762 mmHg 85%
    07:00 +25°C° 0 mm 4 mps 762 mmHg 79%
    08:00 +26°C° 0 mm 4 mps 762 mmHg 75%
    09:00 +27°C° 0 mm 4 mps 762 mmHg 71%
    10:00 +28°C° 0 mm 4 mps 762 mmHg 66%
    11:00 +29°C° 0 mm 4 mps 762 mmHg 65%
    12:00 +29°C° 0 mm 4 mps 761 mmHg 63%
    13:00 +30°C° 0 mm 4 mps 761 mmHg 62%
    14:00 +30°C° 0.1 mm 4 mps 761 mmHg 64%
    15:00 +29°C° 0.1 mm 5 mps 761 mmHg 66%
    16:00 +29°C° 0.1 mm 5 mps 761 mmHg 67%
    17:00 +28°C° 0.2 mm 4 mps 761 mmHg 73%
    18:00 +27°C° 0.2 mm 4 mps 761 mmHg 78%
    19:00 +26°C° 0.2 mm 4 mps 761 mmHg 83%
    20:00 +25°C° 0.1 mm 4 mps 761 mmHg 85%
    21:00 +25°C° 0.1 mm 3 mps 761 mmHg 88%
    22:00 +24°C° 0.1 mm 3 mps 761 mmHg 91%
    23:00 +24°C° 0 mm 3 mps 761 mmHg 92%

    28 July, Saturday

    Time Temperature Precipitation Wind Pressure Humidity
    00:00 +22°C° 0 mm 3 mps 761 mmHg 92%
    01:00 +22°C° 0 mm 3 mps 761 mmHg 93%
    02:00 +22°C° 0 mm 3 mps 761 mmHg 93%
    03:00 +22°C° 0 mm 3 mps 761 mmHg 94%
    04:00 +21°C° 0 mm 3 mps 761 mmHg 94%
    05:00 +24°C° 0 mm 3 mps 761 mmHg 89%
    06:00 +25°C° 0 mm 3 mps 761 mmHg 85%
    07:00 +26°C° 0 mm 3 mps 761 mmHg 80%
    08:00 +27°C° 0 mm 3 mps 761 mmHg 74%
    09:00 +29°C° 0 mm 4 mps 761 mmHg 68%
    10:00 +30°C° 0 mm 4 mps 761 mmHg 62%
    11:00 +30°C° 0 mm 4 mps 761 mmHg 61%
    12:00 +32°C° 0 mm 4 mps 760 mmHg 60%
    13:00 +32°C° 0 mm 4 mps 760 mmHg 58%
    14:00 +32°C° 0 mm 5 mps 760 mmHg 60%
    15:00 +30°C° 0 mm 5 mps 760 mmHg 62%
    16:00 +30°C° 0 mm 5 mps 760 mmHg 64%
    17:00 +29°C° 0 mm 5 mps 760 mmHg 69%
    18:00 +28°C° 0 mm 5 mps 760 mmHg 74%
    19:00 +27°C° 0 mm 5 mps 760 mmHg 79%
    20:00 +26°C° 0 mm 4 mps 760 mmHg 82%
    21:00 +25°C° 0 mm 4 mps 761 mmHg 85%
    22:00 +23°C° 0 mm 4 mps 761 mmHg 87%
    23:00 +23°C° 0 mm 4 mps 761 mmHg 89%
    Show more